{"data":{"norad_id":62992,"epoch":"2026-09-21T16:25:20.578944Z","epoch_age_seconds":62814,"freshness":"FRESH","line1":"1 62992U 25031M   26264.68426596  .00180941  00000+0  13809-2 0  9990","line2":"2 62992  43.0155 260.3824 0002866 270.4371  89.6168 15.70876371 93554","mean_motion":15.70876371,"eccentricity":0.0002866,"inclination_deg":43.0155,"raan_deg":260.3824,"arg_perigee_deg":270.4371,"mean_anomaly_deg":89.6168,"bstar":0.0013809,"rev_number":9355,"period_min":91.66857599897,"perigee_km":354.46099269349,"apogee_km":358.32122420526,"semimajor_km":6734.5281084494,"source":"CELESTRAK","updated_at":"2026-09-22T09:00:49.718785Z"}}